Regional Weather Roundup
Issued by NWS

Home | Current Version | Previous Version | Text Only | Print | Product List | Glossary On
Versions: 1 2 3 4 5 6 7 8 9 10 11 12 13 14 15 16 17 18 19 20 21 22 23 24 25 26 27 28 29 30 31 32 33 34 35 36 37 38 39 40 41 42 43 44 45 46 47 48 49 50
000
ASUS43 KLSX 191257
RWRMO

WEATHER SUMMARY FOR MISSOURI
NATIONAL WEATHER SERVICE SPRINGFIELD MO
800 AM CDT THU APR 19 2018

NOTE: "FAIR" INDICATES FEW OR NO CLOUDS BELOW 12,000 FEET WITH NO
       SIGNIFICANT WEATHER AND/OR OBSTRUCTIONS TO VISIBILITY.
       CURRENT SKY AND/OR WEATHER CONDITIONS ARE NOT AVAILABLE FOR
       CHILLICOTHE AND FARMINGTON.

MOZ001>031-035>038-043-044-053-054-191400-
...NORTHERN AND WESTERN MISSOURI...

CITY           SKY/WX    TMP DP  RH WIND       PRES   REMARKS
KANSAS CTY INT SUNNY     34  29  82 N9        30.41R WCI  27
LEE`S SUMMIT   MOSUNNY   34  30  85 N10       30.40R WCI  26
ST JOSEPH      SUNNY     34  31  88 N8        30.43R WCI  27
CHILLICOTHE      N/A     34  28  79 NW7       30.40R WCI  28

$$
MOZ066>068-077>081-088>096-101>105-191400-
...SOUTHWEST MISSOURI...

CITY           SKY/WX    TMP DP  RH WIND       PRES   REMARKS
SPRINGFIELD    CLOUDY    39  30  70 N12       30.32R
JOPLIN         CLOUDY    37  31  78 N7        30.37R
BRANSON        MOSUNNY   37  27  65 NW8       30.32R

$$
MOZ032>034-039>042-045>050-055>058-069>072-191400-
...CENTRAL MISSOURI...

CITY           SKY/WX    TMP DP  RH WIND       PRES   REMARKS
COLUMBIA       NOT AVBL
JEFFERSON CITY MOSUNNY   35  26  69 NW8       30.37R WCI  29
ROLLA          CLOUDY    34  26  72 NW10      30.32R WCI  26
SEDALIA        SUNNY     36  30  79 N13       30.39R WCI  27
WARRENSBURG    SUNNY     34  28  80 N9        30.40R WCI  26

$$
MOZ051-052-059>065-191400-
...EAST CENTRAL MISSOURI...

CITY           SKY/WX    TMP DP  RH WIND       PRES   REMARKS
ST LOUIS INTL  CLOUDY    38  29  70 N9        30.31R

$$
MOZ072>076-082>087-097>100-106>115-191400-
...SOUTH CENTRAL AND SOUTHEAST MISSOURI...

CITY           SKY/WX    TMP DP  RH WIND       PRES   REMARKS
CAPE GIRARDEAU CLOUDY    41  26  55 N16       30.27R
POPLAR BLUFF   CLOUDY    42  26  53 N13       30.27R
WEST PLAINS    CLOUDY    39  24  55 N13G25    30.30R

$$




USA.gov is the U.S. government's official web portal to all federal, state and local government web resources and services.